Regional Weather Roundup
Issued by NWS

Home | Current Version | Previous Version | Graphics & Text | Print | Product List | Glossary On
Versions: 1 2 3 4 5 6 7 8 9 10 11 12 13 14 15 16 17 18 19 20 21 22 23 24 25 26 27 28 29 30 31 32 33 34 35 36 37 38 39 40 41 42 43 44 45 46 47 48 49 50
000
ASUS44 KMEG 242000
RWRTN
TENNESSEE HOURLY STATE WEATHER ROUNDUP
NATIONAL WEATHER SERVICE MEMPHIS TN
200 PM CST MON NOV 24 2014

TNZ002-004-019-021-049-052-054-088>092-242100-
WEST TENNESSEE

CITY           SKY/WX    TMP DP  RH WIND       PRES   REMARKS
MEMPHIS INTL   MOSUNNY   56  32  40 W12G20    29.88S
NWS MEMPHIS      N/A     55 N/A N/A MISG        N/A
JACKSON        SUNNY     56  32  40 W18       29.86R
DYERSBURG      SUNNY     54  28  37 SW17G24   29.86S
UNION CITY     SUNNY     50  32  50 W15       29.82R
PARIS          MOSUNNY   50  34  53 SW22      29.82R
LEXINGTON      SUNNY     55  30  38 SW17      29.83R
SAVANNAH       SUNNY     55  34  44 SW9       29.86S
$$

TNZ008-025-027-028-033-062-065-066-242100-
NORTH MIDDLE TENNESSEE

CITY           SKY/WX    TMP DP  RH WIND       PRES   REMARKS
NASHVILLE      MOSUNNY   60  36  40 W8        29.79S
CLARKSVILLE    SUNNY     54  34  46 W14G28    29.79R
COOKEVILLE     SUNNY     63  41  45 SW15      29.77R
CROSSVILLE     SUNNY     60  44  55 W16G24    29.79R
$$

TNZ061-075-076-078-094-096-097-242100-
SOUTH MIDDLE TENNESSEE

CITY           SKY/WX    TMP DP  RH WIND       PRES   REMARKS
FAYETTEVILLE   SUNNY     59  39  47 MISG      29.83R
TULLAHOMA      SUNNY     61  39  44 SW13      29.82R
WINCHESTER     MOSUNNY   63  43  48 W10       29.82R
SHELBYVILLE    SUNNY     61  39  44 W21       29.82R
$$

TNZ017-018-042-046-047-242100-
NORTHEAST TENNESSEE

CITY           SKY/WX    TMP DP  RH WIND       PRES   REMARKS
TRI CITIES     MOSUNNY   71  42  35 SW26G39   29.71S
ELIZABETHTON   CLEAR     72  43  35 W9        29.71R
$$

TNZ012-013-036-069-073-074-242100-
CENTRAL EAST TENNESSEE

CITY           SKY/WX    TMP DP  RH WIND       PRES   REMARKS
KNOXVILLE      MOSUNNY   70  46  42 SW22G31   29.71S
OAK RIDGE      SUNNY     70  43  37 SW12G23   29.73R
GATLINBURG     CLEAR     72  43  35 SW21      29.70S
$$

TNZ083-085-099-242100-
SOUTHEAST TENNESSEE

CITY           SKY/WX    TMP DP  RH WIND       PRES   REMARKS
CHATTANOOGA    MOSUNNY   69  45  41 SW17G23   29.78R
$$

SKY/WX REPORTED AS FAIR MEANS FEW OR NO CLOUDS BELOW
12 THOUSAND FEET.




USA.gov is the U.S. government's official web portal to all federal, state and local government web resources and services.